EN

Hourly Weather Bolshie Peksely

Today, 24 October, Saturday

Time Temperature Precipitation Wind Pressure Humidity
00:00 +12°C° 0.4 mm 5 mps 741 mmHg 88%
01:00 +12°C° 0 mm 5 mps 741 mmHg 89%
02:00 +10°C° 0 mm 5 mps 741 mmHg 90%
03:00 +9°C° 0 mm 5 mps 741 mmHg 92%
04:00 +9°C° 0 mm 5 mps 741 mmHg 92%
05:00 +9°C° 0 mm 5 mps 741 mmHg 92%
06:00 +8°C° 0 mm 5 mps 741 mmHg 93%
07:00 +8°C° 0 mm 5 mps 742 mmHg 90%
08:00 +9°C° 0 mm 5 mps 742 mmHg 86%
09:00 +9°C° 0 mm 5 mps 743 mmHg 83%
10:00 +9°C° 0 mm 5 mps 743 mmHg 80%
11:00 +10°C° 0 mm 4 mps 743 mmHg 77%
12:00 +10°C° 0 mm 4 mps 744 mmHg 74%
13:00 +10°C° 0 mm 4 mps 744 mmHg 72%
14:00 +10°C° 0 mm 4 mps 744 mmHg 70%
15:00 +11°C° 0 mm 4 mps 745 mmHg 68%
16:00 +10°C° 0 mm 3 mps 745 mmHg 73%
17:00 +9°C° 0 mm 3 mps 745 mmHg 77%
18:00 +8°C° 0 mm 2 mps 745 mmHg 82%
19:00 +8°C° 0 mm 2 mps 745 mmHg 85%
20:00 +7°C° 0 mm 2 mps 745 mmHg 87%
21:00 +7°C° 0 mm 2 mps 745 mmHg 89%
22:00 +7°C° 0 mm 2 mps 745 mmHg 89%
23:00 +8°C° 0 mm 2 mps 744 mmHg 88%

Tomorrow, 25 October, Sunday

Time Temperature Precipitation Wind Pressure Humidity
00:00 +8°C° 0 mm 2 mps 744 mmHg 88%
01:00 +8°C° 0.7 mm 2 mps 744 mmHg 91%
02:00 +9°C° 0.7 mm 1 mps 744 mmHg 94%
03:00 +9°C° 0.7 mm 1 mps 744 mmHg 96%
04:00 +9°C° 1.1 mm 1 mps 743 mmHg 96%
05:00 +9°C° 1.1 mm 1 mps 743 mmHg 97%
06:00 +8°C° 1.1 mm 1 mps 742 mmHg 97%
07:00 +8°C° 0.5 mm 2 mps 743 mmHg 95%
08:00 +8°C° 0.5 mm 2 mps 743 mmHg 94%
09:00 +8°C° 0.5 mm 2 mps 744 mmHg 92%
10:00 +8°C° 0.1 mm 2 mps 744 mmHg 89%
11:00 +9°C° 0.1 mm 2 mps 745 mmHg 85%
12:00 +9°C° 0.1 mm 3 mps 745 mmHg 81%
13:00 +9°C° 0 mm 3 mps 746 mmHg 78%
14:00 +10°C° 0 mm 3 mps 746 mmHg 75%
15:00 +10°C° 0 mm 3 mps 747 mmHg 72%
16:00 +9°C° 0 mm 3 mps 747 mmHg 76%
17:00 +8°C° 0 mm 3 mps 748 mmHg 80%
18:00 +7°C° 0 mm 3 mps 748 mmHg 85%
19:00 +5°C° 0 mm 3 mps 749 mmHg 86%
20:00 +5°C° 0 mm 2 mps 749 mmHg 88%
21:00 +5°C° 0 mm 2 mps 750 mmHg 89%
22:00 +5°C° 0 mm 2 mps 750 mmHg 90%
23:00 +4°C° 0 mm 2 mps 750 mmHg 91%

Day after tomorrow, 26 October, Monday

Time Temperature Precipitation Wind Pressure Humidity
00:00 +4°C° 0 mm 2 mps 751 mmHg 92%
01:00 +5°C° 0 mm 2 mps 751 mmHg 92%
02:00 +5°C° 0 mm 2 mps 751 mmHg 92%
03:00 +6°C° 0 mm 1 mps 752 mmHg 92%
04:00 +6°C° 0 mm 2 mps 752 mmHg 92%
05:00 +6°C° 0 mm 2 mps 752 mmHg 92%
06:00 +6°C° 0 mm 2 mps 752 mmHg 93%
07:00 +6°C° 0 mm 2 mps 753 mmHg 92%
08:00 +6°C° 0 mm 2 mps 753 mmHg 91%
09:00 +6°C° 0 mm 2 mps 753 mmHg 90%
10:00 +7°C° 0 mm 2 mps 753 mmHg 86%
11:00 +8°C° 0 mm 2 mps 754 mmHg 81%
12:00 +9°C° 0 mm 2 mps 754 mmHg 76%
13:00 +9°C° 0 mm 2 mps 754 mmHg 76%
14:00 +9°C° 0 mm 2 mps 755 mmHg 75%
15:00 +9°C° 0 mm 2 mps 755 mmHg 75%
16:00 +7°C° 0 mm 2 mps 755 mmHg 80%
17:00 +6°C° 0 mm 2 mps 755 mmHg 84%
18:00 +5°C° 0 mm 2 mps 756 mmHg 88%
19:00 +4°C° 0 mm 2 mps 756 mmHg 89%
20:00 +4°C° 0 mm 2 mps 757 mmHg 89%
21:00 +3°C° 0 mm 2 mps 757 mmHg 89%
22:00 +3°C° 0 mm 2 mps 757 mmHg 88%
23:00 +3°C° 0 mm 2 mps 757 mmHg 88%

, 27 October, Tuesday

Time Temperature Precipitation Wind Pressure Humidity
00:00 +2°C° 0 mm 2 mps 758 mmHg 87%
01:00 +2°C° 0 mm 2 mps 758 mmHg 87%
02:00 +2°C° 0 mm 2 mps 758 mmHg 88%
03:00 +1°C° 0 mm 2 mps 758 mmHg 88%
04:00 +1°C° 0 mm 2 mps 759 mmHg 88%
05:00 +1°C° 0 mm 2 mps 759 mmHg 88%
06:00 +1°C° 0 mm 2 mps 759 mmHg 88%
07:00 +1°C° 0 mm 2 mps 759 mmHg 86%
08:00 +2°C° 0 mm 2 mps 759 mmHg 83%
09:00 +2°C° 0 mm 2 mps 759 mmHg 80%
10:00 +3°C° 0 mm 2 mps 760 mmHg 76%
11:00 +4°C° 0 mm 2 mps 760 mmHg 73%
12:00 +5°C° 0 mm 2 mps 760 mmHg 69%
13:00 +5°C° 0 mm 2 mps 760 mmHg 68%
14:00 +6°C° 0 mm 2 mps 760 mmHg 68%
15:00 +6°C° 0 mm 2 mps 760 mmHg 68%
16:00 +5°C° 0 mm 2 mps 760 mmHg 72%
17:00 +4°C° 0 mm 2 mps 760 mmHg 76%
18:00 +3°C° 0 mm 2 mps 760 mmHg 81%
19:00 +3°C° 0 mm 2 mps 760 mmHg 81%
20:00 +3°C° 0 mm 2 mps 760 mmHg 82%
21:00 +2°C° 0 mm 2 mps 760 mmHg 82%
22:00 +2°C° 0 mm 2 mps 760 mmHg 82%
23:00 +2°C° 0 mm 2 mps 760 mmHg 82%

27 October, Tuesday

Time Temperature Precipitation Wind Pressure Humidity
00:00 +2°C° 0 mm 2 mps 758 mmHg 87%
01:00 +2°C° 0 mm 2 mps 758 mmHg 87%
02:00 +2°C° 0 mm 2 mps 758 mmHg 88%
03:00 +1°C° 0 mm 2 mps 758 mmHg 88%
04:00 +1°C° 0 mm 2 mps 759 mmHg 88%
05:00 +1°C° 0 mm 2 mps 759 mmHg 88%
06:00 +1°C° 0 mm 2 mps 759 mmHg 88%
07:00 +1°C° 0 mm 2 mps 759 mmHg 86%
08:00 +2°C° 0 mm 2 mps 759 mmHg 83%
09:00 +2°C° 0 mm 2 mps 759 mmHg 80%
10:00 +3°C° 0 mm 2 mps 760 mmHg 76%
11:00 +4°C° 0 mm 2 mps 760 mmHg 73%
12:00 +5°C° 0 mm 2 mps 760 mmHg 69%
13:00 +5°C° 0 mm 2 mps 760 mmHg 68%
14:00 +6°C° 0 mm 2 mps 760 mmHg 68%
15:00 +6°C° 0 mm 2 mps 760 mmHg 68%
16:00 +5°C° 0 mm 2 mps 760 mmHg 72%
17:00 +4°C° 0 mm 2 mps 760 mmHg 76%
18:00 +3°C° 0 mm 2 mps 760 mmHg 81%
19:00 +3°C° 0 mm 2 mps 760 mmHg 81%
20:00 +3°C° 0 mm 2 mps 760 mmHg 82%
21:00 +2°C° 0 mm 2 mps 760 mmHg 82%
22:00 +2°C° 0 mm 2 mps 760 mmHg 82%
23:00 +2°C° 0 mm 2 mps 760 mmHg 82%

28 October, Wednesday

Time Temperature Precipitation Wind Pressure Humidity
00:00 +2°C° 0 mm 2 mps 760 mmHg 82%
01:00 +2°C° 0 mm 2 mps 760 mmHg 83%
02:00 +2°C° 0 mm 2 mps 760 mmHg 83%
03:00 +2°C° 0 mm 2 mps 760 mmHg 83%
04:00 +2°C° 0 mm 2 mps 760 mmHg 84%
05:00 +1°C° 0 mm 3 mps 760 mmHg 84%
06:00 +1°C° 0 mm 3 mps 760 mmHg 84%
07:00 +1°C° 0 mm 3 mps 760 mmHg 80%
08:00 +2°C° 0 mm 3 mps 760 mmHg 76%
09:00 +3°C° 0 mm 3 mps 760 mmHg 72%
10:00 +4°C° 0 mm 4 mps 760 mmHg 68%
11:00 +5°C° 0 mm 4 mps 760 mmHg 64%
12:00 +6°C° 0 mm 4 mps 760 mmHg 60%
13:00 +7°C° 0 mm 4 mps 760 mmHg 59%
14:00 +7°C° 0 mm 4 mps 760 mmHg 57%
15:00 +7°C° 0 mm 4 mps 760 mmHg 56%
16:00 +7°C° 0 mm 3 mps 760 mmHg 60%
17:00 +4°C° 0 mm 3 mps 760 mmHg 64%
18:00 +3°C° 0 mm 3 mps 760 mmHg 68%
19:00 +3°C° 0 mm 3 mps 760 mmHg 67%
20:00 +2°C° 0 mm 3 mps 760 mmHg 66%
21:00 +2°C° 0 mm 3 mps 760 mmHg 65%
22:00 +2°C° 0 mm 3 mps 760 mmHg 64%
23:00 +1°C° 0 mm 3 mps 760 mmHg 62%

29 October, Thursday

Time Temperature Precipitation Wind Pressure Humidity
00:00 +1°C° 0 mm 3 mps 760 mmHg 61%
01:00 +1°C° 0 mm 3 mps 760 mmHg 62%
02:00 0°C° 0 mm 3 mps 760 mmHg 63%
03:00 0°C° 0 mm 3 mps 760 mmHg 64%
04:00 0°C° 0 mm 3 mps 760 mmHg 65%
05:00 -1°C° 0 mm 3 mps 760 mmHg 67%
06:00 -1°C° 0 mm 3 mps 760 mmHg 69%
07:00 -1°C° 0 mm 3 mps 760 mmHg 66%
08:00 0°C° 0 mm 3 mps 760 mmHg 64%
09:00 0°C° 0 mm 4 mps 760 mmHg 62%
10:00 +1°C° 0 mm 4 mps 760 mmHg 59%
11:00 +4°C° 0 mm 4 mps 760 mmHg 56%
12:00 +5°C° 0 mm 4 mps 760 mmHg 53%
13:00 +5°C° 0 mm 4 mps 759 mmHg 53%
14:00 +5°C° 0 mm 4 mps 759 mmHg 54%
15:00 +6°C° 0 mm 4 mps 758 mmHg 54%
16:00 +5°C° 0 mm 3 mps 758 mmHg 58%
17:00 +3°C° 0 mm 3 mps 758 mmHg 62%
18:00 +2°C° 0 mm 3 mps 758 mmHg 66%
19:00 +2°C° 0 mm 3 mps 758 mmHg 66%
20:00 +2°C° 0 mm 3 mps 758 mmHg 65%
21:00 +2°C° 0 mm 3 mps 758 mmHg 65%
22:00 +2°C° 0 mm 3 mps 757 mmHg 63%
23:00 +2°C° 0 mm 3 mps 757 mmHg 62%
Show more